Time,TemperatureF,DewpointF,PressureIn,WindDirection,WindDirectionDegrees,WindSpeedMPH,WindSpeedGustMPH,Humidity,HourlyPrecipIn,Conditions,Clouds,dailyrainin,SoftwareType,DateUTC
2013-09-18 00:01:00,74.8,72.0,29.99,ENE,64,0.0,2.0,91,0.00,,,0.00,WeatherCatV1.21B27,2013-09-18 04:01:00,
2013-09-18 00:02:00,74.7,71.9,29.99,ENE,64,0.0,1.0,91,0.00,,,0.00,WeatherCatV1.21B27,2013-09-18 04:02:00,
2013-09-18 00:03:00,74.7,71.9,29.99,ENE,64,0.0,1.0,91,0.00,,,0.00,WeatherCatV1.21B27,2013-09-18 04:03:00,
2013-09-18 00:08:00,74.7,71.9,29.99,ENE,64,0.0,0.0,91,0.00,,,0.00,WeatherCatV1.21B27,2013-09-18 04:08:00,
2013-09-18 00:13:00,74.7,72.2,29.99,ENE,64,0.0,1.0,92,0.00,,,0.00,WeatherCatV1.21B27,2013-09-18 04:13:00,
2013-09-18 00:18:00,74.6,72.1,29.99,ENE,64,1.0,1.0,92,0.00,,,0.00,WeatherCatV1.21B27,2013-09-18 04:18:00,
2013-09-18 00:23:00,74.6,72.1,29.99,ENE,64,0.0,0.0,92,0.00,,,0.00,WeatherCatV1.21B27,2013-09-18 04:23:00,
2013-09-18 00:28:00,74.5,72.0,29.99,ENE,64,0.0,1.0,92,0.00,,,0.00,WeatherCatV1.21B27,2013-09-18 04:28:00,
2013-09-18 00:33:00,74.5,72.0,29.99,ENE,64,0.0,0.0,92,0.00,,,0.00,WeatherCatV1.21B27,2013-09-18 04:33:00,
2013-09-18 00:38:00,74.5,72.0,29.99,ENE,64,0.0,0.0,92,0.00,,,0.00,WeatherCatV1.21B27,2013-09-18 04:38:00,
2013-09-18 00:43:00,74.4,71.9,29.99,ENE,64,0.0,0.0,92,0.00,,,0.00,WeatherCatV1.21B27,2013-09-18 04:43:00,
2013-09-18 00:48:00,74.4,71.9,29.99,ENE,64,0.0,0.0,92,0.00,,,0.00,WeatherCatV1.21B27,2013-09-18 04:48:00,
2013-09-18 00:53:00,74.3,71.8,29.99,ENE,64,0.0,0.0,92,0.00,,,0.00,WeatherCatV1.21B27,2013-09-18 04:53:00,
2013-09-18 00:58:00,74.2,71.7,29.99,ENE,64,0.0,0.0,92,0.00,,,0.00,WeatherCatV1.21B27,2013-09-18 04:58:00,
2013-09-18 01:03:00,74.2,72.0,29.99,ENE,64,0.0,0.0,93,0.00,,,0.00,WeatherCatV1.21B27,2013-09-18 05:03:00,
2013-09-18 01:08:00,74.2,72.0,29.99,ENE,64,0.0,0.0,93,0.00,,,0.00,WeatherCatV1.21B27,2013-09-18 05:08:00,
2013-09-18 01:13:00,74.2,72.0,29.99,ENE,64,0.0,0.0,93,0.00,,,0.00,WeatherCatV1.21B27,2013-09-18 05:13:00,
2013-09-18 01:18:00,74.2,72.0,29.99,ENE,64,0.0,0.0,93,0.00,,,0.00,WeatherCatV1.21B27,2013-09-18 05:18:00,
2013-09-18 01:23:00,74.1,71.9,29.99,ENE,64,0.0,0.0,93,0.00,,,0.00,WeatherCatV1.21B27,2013-09-18 05:23:00,
2013-09-18 01:28:00,74.0,71.8,29.99,ENE,64,0.0,0.0,93,0.00,,,0.00,WeatherCatV1.21B27,2013-09-18 05:28:00,
2013-09-18 01:31:00,73.9,71.7,29.99,ENE,64,0.0,0.0,93,0.00,,,0.00,WeatherCatV1.21B27,2013-09-18 05:31:00,
2013-09-18 01:36:00,73.9,71.7,29.99,ENE,64,0.0,0.0,93,0.00,,,0.00,WeatherCatV1.21B27,2013-09-18 05:36:00,
2013-09-18 01:41:00,73.8,71.6,29.99,ENE,64,0.0,0.0,93,0.00,,,0.00,WeatherCatV1.21B27,2013-09-18 05:41:00,
2013-09-18 01:46:00,73.7,71.5,29.98,ENE,64,0.0,0.0,93,0.00,,,0.00,WeatherCatV1.21B27,2013-09-18 05:46:00,
2013-09-18 01:51:00,73.7,71.5,29.98,ENE,64,0.0,0.0,93,0.00,,,0.00,WeatherCatV1.21B27,2013-09-18 05:51:00,
2013-09-18 01:56:00,73.6,71.4,29.98,ENE,64,0.0,0.0,93,0.00,,,0.00,WeatherCatV1.21B27,2013-09-18 05:56:00,
2013-09-18 02:01:00,73.5,71.3,29.98,ENE,64,0.0,0.0,93,0.00,,,0.00,WeatherCatV1.21B27,2013-09-18 06:01:00,
2013-09-18 02:06:00,73.5,71.3,29.98,ENE,64,0.0,0.0,93,0.00,,,0.00,WeatherCatV1.21B27,2013-09-18 06:06:00,
2013-09-18 02:11:00,73.5,71.3,29.98,ENE,64,0.0,0.0,93,0.00,,,0.00,WeatherCatV1.21B27,2013-09-18 06:11:00,
2013-09-18 02:16:00,73.5,71.3,29.98,ENE,64,0.0,0.0,93,0.00,,,0.00,WeatherCatV1.21B27,2013-09-18 06:16:00,
2013-09-18 02:21:00,73.5,71.3,29.98,ENE,64,0.0,0.0,93,0.00,,,0.00,WeatherCatV1.21B27,2013-09-18 06:21:00,
2013-09-18 02:26:00,73.4,71.2,29.98,ENE,64,0.0,0.0,93,0.00,,,0.00,WeatherCatV1.21B27,2013-09-18 06:26:00,
2013-09-18 02:31:00,73.4,71.2,29.98,ENE,64,0.0,0.0,93,0.00,,,0.00,WeatherCatV1.21B27,2013-09-18 06:31:00,
2013-09-18 02:36:00,73.5,71.7,29.97,ENE,64,0.0,1.0,94,0.00,,,0.00,WeatherCatV1.21B27,2013-09-18 06:36:00,
2013-09-18 02:41:00,73.5,71.7,29.97,ENE,64,0.0,0.0,94,0.00,,,0.00,WeatherCatV1.21B27,2013-09-18 06:41:00,
2013-09-18 02:46:00,73.5,71.7,29.97,ENE,64,0.0,0.0,94,0.00,,,0.00,WeatherCatV1.21B27,2013-09-18 06:46:00,
2013-09-18 02:51:00,73.6,71.8,29.97,ENE,64,0.0,0.0,94,0.00,,,0.00,WeatherCatV1.21B27,2013-09-18 06:51:00,
2013-09-18 02:56:00,73.6,71.8,29.97,NNE,25,1.0,2.0,94,0.00,,,0.00,WeatherCatV1.21B27,2013-09-18 06:56:00,
2013-09-18 03:01:00,73.6,71.8,29.97,NNE,25,0.0,0.0,94,0.00,,,0.00,WeatherCatV1.21B27,2013-09-18 07:01:00,
2013-09-18 03:06:00,73.6,71.8,29.96,NNE,25,0.0,0.0,94,0.00,,,0.00,WeatherCatV1.21B27,2013-09-18 07:06:00,
2013-09-18 03:11:00,73.6,71.8,29.96,NNE,25,0.0,1.0,94,0.00,,,0.00,WeatherCatV1.21B27,2013-09-18 07:11:00,
2013-09-18 03:16:00,73.6,71.8,29.96,NNE,25,0.0,0.0,94,0.00,,,0.00,WeatherCatV1.21B27,2013-09-18 07:16:00,
2013-09-18 03:21:00,73.6,71.8,29.96,NNE,25,1.0,1.0,94,0.00,,,0.00,WeatherCatV1.21B27,2013-09-18 07:21:00,
2013-09-18 03:26:00,73.6,71.8,29.96,NNE,25,0.0,1.0,94,0.00,,,0.00,WeatherCatV1.21B27,2013-09-18 07:26:00,
2013-09-18 03:31:00,73.6,71.8,29.95,NNE,25,0.0,1.0,94,0.00,,,0.00,WeatherCatV1.21B27,2013-09-18 07:31:00,
2013-09-18 03:36:00,73.6,71.8,29.95,NNE,25,0.0,1.0,94,0.00,,,0.00,WeatherCatV1.21B27,2013-09-18 07:36:00,
2013-09-18 03:41:00,73.7,71.9,29.96,NNE,25,0.0,0.0,94,0.00,,,0.00,WeatherCatV1.21B27,2013-09-18 07:41:00,
2013-09-18 03:46:00,73.7,71.9,29.96,NNE,25,0.0,0.0,94,0.00,,,0.00,WeatherCatV1.21B27,2013-09-18 07:46:00,
2013-09-18 03:51:00,73.7,71.9,29.95,NNE,25,0.0,1.0,94,0.00,,,0.00,WeatherCatV1.21B27,2013-09-18 07:51:00,
2013-09-18 03:56:00,73.7,71.9,29.95,NNE,22,0.0,2.0,94,0.00,,,0.00,WeatherCatV1.21B27,2013-09-18 07:56:00,
2013-09-18 04:01:00,73.7,71.9,29.95,NNE,22,0.0,1.0,94,0.00,,,0.00,WeatherCatV1.21B27,2013-09-18 08:01:00,
2013-09-18 04:06:00,73.7,71.9,29.95,NNE,22,0.0,0.0,94,0.00,,,0.00,WeatherCatV1.21B27,2013-09-18 08:06:00,
2013-09-18 04:11:00,73.8,72.0,29.95,NNE,20,2.0,2.0,94,0.00,,,0.00,WeatherCatV1.21B27,2013-09-18 08:11:00,
2013-09-18 04:16:00,73.8,72.0,29.95,NNE,16,0.0,1.0,94,0.00,,,0.00,WeatherCatV1.21B27,2013-09-18 08:16:00,
2013-09-18 04:21:00,73.9,72.1,29.95,NNE,12,0.0,0.0,94,0.00,,,0.00,WeatherCatV1.21B27,2013-09-18 08:21:00,
2013-09-18 04:26:00,73.9,72.1,29.95,ENE,58,0.0,1.0,94,0.00,,,0.00,WeatherCatV1.21B27,2013-09-18 08:26:00,
2013-09-18 04:31:00,73.9,72.1,29.95,NNE,13,0.0,0.0,94,0.00,,,0.00,WeatherCatV1.21B27,2013-09-18 08:31:00,
2013-09-18 04:36:00,73.9,72.1,29.95,North,5,0.0,2.0,94,0.00,,,0.00,WeatherCatV1.21B27,2013-09-18 08:36:00,
2013-09-18 04:41:00,73.9,72.1,29.95,North,5,0.0,1.0,94,0.00,,,0.00,WeatherCatV1.21B27,2013-09-18 08:41:00,
2013-09-18 04:46:00,73.9,72.1,29.95,NNE,14,0.0,1.0,94,0.00,,,0.00,WeatherCatV1.21B27,2013-09-18 08:46:00,
2013-09-18 04:51:00,73.9,72.1,29.95,NNE,14,0.0,0.0,94,0.00,,,0.00,WeatherCatV1.21B27,2013-09-18 08:51:00,
2013-09-18 04:56:00,73.9,72.1,29.95,North,0,0.0,2.0,94,0.00,,,0.00,WeatherCatV1.21B27,2013-09-18 08:56:00,
2013-09-18 05:01:00,73.9,72.1,29.95,North,5,0.0,4.0,94,0.00,,,0.00,WeatherCatV1.21B27,2013-09-18 09:01:00,
2013-09-18 05:06:00,74.0,72.2,29.95,NNE,30,1.0,3.0,94,0.00,,,0.00,WeatherCatV1.21B27,2013-09-18 09:06:00,
2013-09-18 05:11:00,74.1,72.3,29.95,NNE,13,0.0,4.0,94,0.00,,,0.00,WeatherCatV1.21B27,2013-09-18 09:11:00,
2013-09-18 05:16:00,74.1,72.3,29.95,North,5,1.0,2.0,94,0.00,,,0.00,WeatherCatV1.21B27,2013-09-18 09:16:00,
2013-09-18 05:21:00,74.1,72.3,29.95,North,0,1.0,2.0,94,0.00,,,0.00,WeatherCatV1.21B27,2013-09-18 09:21:00,
2013-09-18 05:26:00,74.1,72.3,29.95,NE,43,0.0,2.0,94,0.00,,,0.00,WeatherCatV1.21B27,2013-09-18 09:26:00,
2013-09-18 05:31:00,74.1,72.3,29.96,NE,53,0.0,2.0,94,0.00,,,0.00,WeatherCatV1.21B27,2013-09-18 09:31:00,
2013-09-18 05:36:00,74.1,72.3,29.95,NNW,335,0.0,2.0,94,0.00,,,0.00,WeatherCatV1.21B27,2013-09-18 09:36:00,
2013-09-18 05:41:00,74.1,72.3,29.96,North,11,0.0,1.0,94,0.00,,,0.00,WeatherCatV1.21B27,2013-09-18 09:41:00,
2013-09-18 05:46:00,74.1,72.3,29.96,North,351,1.0,1.0,94,0.00,,,0.00,WeatherCatV1.21B27,2013-09-18 09:46:00,
2013-09-18 05:51:00,74.1,72.3,29.96,NNE,17,1.0,1.0,94,0.00,,,0.00,WeatherCatV1.21B27,2013-09-18 09:51:00,
2013-09-18 05:56:00,74.0,72.2,29.96,North,11,0.0,1.0,94,0.00,,,0.00,WeatherCatV1.21B27,2013-09-18 09:56:00,
2013-09-18 06:01:00,74.0,72.2,29.96,North,11,0.0,0.0,94,0.00,,,0.00,WeatherCatV1.21B27,2013-09-18 10:01:00,
2013-09-18 06:06:00,74.0,72.2,29.96,North,11,0.0,0.0,94,0.00,,,0.00,WeatherCatV1.21B27,2013-09-18 10:06:00,
2013-09-18 06:11:00,74.1,72.3,29.96,NE,43,0.0,4.0,94,0.00,,,0.00,WeatherCatV1.21B27,2013-09-18 10:11:00,
2013-09-18 06:16:00,74.2,72.4,29.96,ENE,63,0.0,1.0,94,0.00,,,0.00,WeatherCatV1.21B27,2013-09-18 10:16:00,
2013-09-18 06:21:00,74.2,72.4,29.96,ENE,75,0.0,0.0,94,0.00,,,0.00,WeatherCatV1.21B27,2013-09-18 10:21:00,
2013-09-18 06:26:00,74.2,72.4,29.96,ENE,77,0.0,0.0,94,0.00,,,0.00,WeatherCatV1.21B27,2013-09-18 10:26:00,
2013-09-18 06:31:00,74.3,72.4,29.97,ENE,71,0.0,0.0,94,0.00,,,0.00,WeatherCatV1.21B27,2013-09-18 10:31:00,
2013-09-18 06:36:00,74.3,72.4,29.97,ENE,71,0.0,1.0,94,0.00,,,0.00,WeatherCatV1.21B27,2013-09-18 10:36:00,
2013-09-18 06:41:00,74.4,72.6,29.97,North,5,4.0,4.0,94,0.00,,,0.00,WeatherCatV1.21B27,2013-09-18 10:41:00,
2013-09-18 06:46:00,74.4,72.6,29.97,NNE,33,0.0,0.0,94,0.00,,,0.00,WeatherCatV1.21B27,2013-09-18 10:46:00,
2013-09-18 06:51:00,74.5,72.7,29.97,ENE,72,0.0,1.0,94,0.00,,,0.00,WeatherCatV1.21B27,2013-09-18 10:51:00,
2013-09-18 06:56:00,74.5,72.7,29.97,East,90,0.0,0.0,94,0.00,,,0.00,WeatherCatV1.21B27,2013-09-18 10:56:00,
2013-09-18 07:01:00,74.5,72.7,29.97,East,90,2.0,2.0,94,0.00,,,0.00,WeatherCatV1.21B27,2013-09-18 11:01:00,
2013-09-18 07:06:00,74.5,72.7,29.97,East,85,1.0,2.0,94,0.00,,,0.00,WeatherCatV1.21B27,2013-09-18 11:06:00,
2013-09-18 07:11:00,74.5,72.7,29.97,ENE,72,0.0,1.0,94,0.00,,,0.00,WeatherCatV1.21B27,2013-09-18 11:11:00,
2013-09-18 07:16:00,74.5,72.7,29.97,NE,34,0.0,1.0,94,0.00,,,0.00,WeatherCatV1.21B27,2013-09-18 11:16:00,
2013-09-18 07:21:00,74.5,72.7,29.97,NE,51,0.0,1.0,94,0.00,,,0.00,WeatherCatV1.21B27,2013-09-18 11:21:00,
2013-09-18 07:26:00,74.5,72.7,29.97,NE,51,1.0,1.0,94,0.00,,,0.00,WeatherCatV1.21B27,2013-09-18 11:26:00,
2013-09-18 07:31:00,74.5,72.7,29.97,NE,51,0.0,1.0,94,0.00,,,0.00,WeatherCatV1.21B27,2013-09-18 11:31:00,
2013-09-18 07:36:00,74.4,72.6,29.97,NE,51,0.0,0.0,94,0.00,,,0.00,WeatherCatV1.21B27,2013-09-18 11:36:00,
2013-09-18 07:41:00,74.5,72.7,29.97,NE,45,0.0,2.0,94,0.00,,,0.00,WeatherCatV1.21B27,2013-09-18 11:41:00,
2013-09-18 07:46:00,74.5,72.7,29.97,ENE,61,0.0,1.0,94,0.00,,,0.00,WeatherCatV1.21B27,2013-09-18 11:46:00,
2013-09-18 07:51:00,74.7,72.8,29.97,East,80,2.0,7.0,94,0.00,,,0.00,WeatherCatV1.21B27,2013-09-18 11:51:00,
2013-09-18 07:56:00,75.0,73.2,29.96,North,355,0.0,3.0,94,0.00,,,0.00,WeatherCatV1.21B27,2013-09-18 11:56:00,
2013-09-18 08:01:00,75.3,73.4,29.97,NNE,28,0.0,2.0,94,0.00,,,0.00,WeatherCatV1.21B27,2013-09-18 12:01:00,
2013-09-18 08:06:00,75.6,73.4,29.98,NNE,25,0.0,2.0,93,0.00,,,0.00,WeatherCatV1.21B27,2013-09-18 12:06:00,
2013-09-18 08:11:00,75.9,73.4,29.98,ENE,67,0.0,2.0,92,0.00,,,0.00,WeatherCatV1.21B27,2013-09-18 12:11:00,
2013-09-18 08:16:00,76.2,73.4,29.98,ENE,62,1.0,3.0,91,0.00,,,0.00,WeatherCatV1.21B27,2013-09-18 12:16:00,
2013-09-18 08:21:00,76.6,73.8,29.98,East,94,0.0,1.0,91,0.00,,,0.00,WeatherCatV1.21B27,2013-09-18 12:21:00,
2013-09-18 08:26:00,76.9,73.7,29.98,ENE,59,0.0,3.0,90,0.00,,,0.00,WeatherCatV1.21B27,2013-09-18 12:26:00,
2013-09-18 08:31:00,77.2,73.7,29.98,NE,51,1.0,4.0,89,0.00,,,0.00,WeatherCatV1.21B27,2013-09-18 12:31:00,
2013-09-18 08:36:00,77.5,73.7,29.99,ENE,65,0.0,6.0,88,0.00,,,0.00,WeatherCatV1.21B27,2013-09-18 12:36:00,
2013-09-18 08:41:00,77.9,74.1,29.99,NNW,331,0.0,4.0,88,0.00,,,0.00,WeatherCatV1.21B27,2013-09-18 12:41:00,
2013-09-18 08:46:00,78.2,74.0,29.99,NE,55,1.0,2.0,87,0.00,,,0.00,WeatherCatV1.21B27,2013-09-18 12:46:00,
2013-09-18 08:51:00,78.6,74.1,29.99,NNE,19,0.0,0.0,86,0.00,,,0.00,WeatherCatV1.21B27,2013-09-18 12:51:00,
2013-09-18 08:56:00,78.8,73.9,29.99,NE,56,3.0,6.0,85,0.00,,,0.00,WeatherCatV1.21B27,2013-09-18 12:56:00,
2013-09-18 09:01:00,79.1,74.2,29.99,ENE,61,1.0,5.0,85,0.00,,,0.00,WeatherCatV1.21B27,2013-09-18 13:01:00,
2013-09-18 09:06:00,79.3,74.0,29.99,North,351,0.0,6.0,84,0.00,,,0.00,WeatherCatV1.21B27,2013-09-18 13:06:00,
2013-09-18 09:11:00,79.5,74.2,29.99,NNE,28,1.0,2.0,84,0.00,,,0.00,WeatherCatV1.21B27,2013-09-18 13:11:00,
2013-09-18 09:16:00,79.8,74.2,29.99,ENE,73,1.0,5.0,83,0.00,,,0.00,WeatherCatV1.21B27,2013-09-18 13:16:00,
2013-09-18 09:21:00,80.1,74.4,30.00,East,86,2.0,6.0,83,0.00,,,0.00,WeatherCatV1.21B27,2013-09-18 13:21:00,
2013-09-18 09:26:00,80.3,74.7,30.00,East,90,4.0,7.0,83,0.00,,,0.00,WeatherCatV1.21B27,2013-09-18 13:26:00,
2013-09-18 09:31:00,80.4,74.8,30.00,ENE,63,4.0,6.0,83,0.00,,,0.00,WeatherCatV1.21B27,2013-09-18 13:31:00,
2013-09-18 09:36:00,80.5,74.5,30.00,North,9,2.0,9.0,82,0.00,,,0.00,WeatherCatV1.21B27,2013-09-18 13:36:00,
2013-09-18 09:42:00,80.7,75.0,30.00,NE,34,2.0,9.0,83,0.00,,,0.00,WeatherCatV1.21B27,2013-09-18 13:42:00,
2013-09-18 09:47:00,81.1,75.1,30.00,NE,37,6.0,7.0,82,0.00,,,0.00,WeatherCatV1.21B27,2013-09-18 13:47:00,
2013-09-18 09:52:00,81.2,74.8,30.00,NE,54,2.0,7.0,81,0.00,,,0.00,WeatherCatV1.21B27,2013-09-18 13:52:00,
2013-09-18 09:57:00,81.5,75.5,30.00,NE,54,2.0,5.0,82,0.00,,,0.00,WeatherCatV1.21B27,2013-09-18 13:57:00,
2013-09-18 10:02:00,81.8,75.0,30.00,East,81,1.0,8.0,80,0.00,,,0.00,WeatherCatV1.21B27,2013-09-18 14:02:00,
2013-09-18 10:07:00,82.0,75.6,30.00,ENE,76,1.0,2.0,81,0.00,,,0.00,WeatherCatV1.21B27,2013-09-18 14:07:00,
2013-09-18 10:12:00,82.3,76.2,30.00,NNE,32,2.0,6.0,82,0.00,,,0.00,WeatherCatV1.21B27,2013-09-18 14:12:00,
2013-09-18 10:17:00,82.9,76.1,30.00,ESE,116,2.0,8.0,80,0.00,,,0.00,WeatherCatV1.21B27,2013-09-18 14:17:00,
2013-09-18 10:22:00,83.0,75.8,30.00,ENE,59,0.0,7.0,79,0.00,,,0.00,WeatherCatV1.21B27,2013-09-18 14:22:00,
2013-09-18 10:27:00,82.9,75.3,30.00,SE,124,5.0,6.0,78,0.00,,,0.00,WeatherCatV1.21B27,2013-09-18 14:27:00,
2013-09-18 10:32:00,82.7,75.5,30.00,East,83,0.0,6.0,79,0.00,,,0.00,WeatherCatV1.21B27,2013-09-18 14:32:00,
2013-09-18 10:37:00,82.7,75.1,30.00,SE,127,0.0,11.0,78,0.00,,,0.00,WeatherCatV1.21B27,2013-09-18 14:37:00,
2013-09-18 10:42:00,82.9,75.7,30.00,ENE,76,4.0,8.0,79,0.00,,,0.00,WeatherCatV1.21B27,2013-09-18 14:42:00,
2013-09-18 10:48:00,83.4,75.4,30.00,ESE,103,4.0,9.0,77,0.00,,,0.00,WeatherCatV1.21B27,2013-09-18 14:48:00,
2013-09-18 10:53:00,84.1,76.1,29.99,East,99,1.0,6.0,77,0.00,,,0.00,WeatherCatV1.21B27,2013-09-18 14:53:00,
2013-09-18 10:58:00,84.5,75.7,29.99,ENE,66,2.0,6.0,75,0.00,,,0.00,WeatherCatV1.21B27,2013-09-18 14:58:00,
2013-09-18 11:03:00,84.5,76.1,29.99,ESE,103,0.0,8.0,76,0.00,,,0.00,WeatherCatV1.21B27,2013-09-18 15:03:00,
2013-09-18 11:08:00,84.6,75.8,29.99,ESE,121,9.0,10.0,75,0.00,,,0.00,WeatherCatV1.21B27,2013-09-18 15:08:00,
2013-09-18 11:13:00,84.6,75.8,29.99,ESE,115,1.0,10.0,75,0.00,,,0.00,WeatherCatV1.21B27,2013-09-18 15:13:00,
2013-09-18 11:18:00,84.8,76.0,29.99,East,97,4.0,8.0,75,0.00,,,0.00,WeatherCatV1.21B27,2013-09-18 15:18:00,
2013-09-18 11:23:00,84.9,75.2,29.99,ESE,111,0.0,6.0,73,0.00,,,0.00,WeatherCatV1.21B27,2013-09-18 15:23:00,
2013-09-18 11:28:00,85.0,75.8,29.99,NE,46,4.0,9.0,74,0.00,,,0.00,WeatherCatV1.21B27,2013-09-18 15:28:00,
2013-09-18 11:33:00,85.0,75.3,29.99,East,89,7.0,8.0,73,0.00,,,0.00,WeatherCatV1.21B27,2013-09-18 15:33:00,
2013-09-18 11:38:00,85.2,75.9,29.99,NE,50,0.0,6.0,74,0.00,,,0.00,WeatherCatV1.21B27,2013-09-18 15:38:00,
2013-09-18 11:43:00,85.6,75.5,29.99,ENE,67,5.0,9.0,72,0.00,,,0.00,WeatherCatV1.21B27,2013-09-18 15:43:00,
2013-09-18 11:48:00,85.9,75.4,29.99,ENE,57,6.0,9.0,71,0.00,,,0.00,WeatherCatV1.21B27,2013-09-18 15:48:00,
2013-09-18 11:53:00,86.0,75.9,29.99,East,82,6.0,6.0,72,0.00,,,0.00,WeatherCatV1.21B27,2013-09-18 15:53:00,
2013-09-18 11:58:00,86.5,76.4,29.99,NE,50,1.0,4.0,72,0.00,,,0.00,WeatherCatV1.21B27,2013-09-18 15:58:00,
2013-09-18 12:01:00,86.9,75.5,29.99,East,90,1.0,7.0,69,0.00,,,0.00,WeatherCatV1.21B27,2013-09-18 16:01:00,
2013-09-18 12:06:00,87.2,74.9,29.99,East,96,6.0,8.0,67,0.00,,,0.00,WeatherCatV1.21B27,2013-09-18 16:06:00,
2013-09-18 12:11:00,87.5,76.5,29.99,NNE,23,1.0,5.0,70,0.00,,,0.00,WeatherCatV1.21B27,2013-09-18 16:11:00,
2013-09-18 12:16:00,88.1,76.2,29.99,East,101,4.0,9.0,68,0.00,,,0.00,WeatherCatV1.21B27,2013-09-18 16:16:00,
2013-09-18 12:21:00,88.4,75.6,29.99,East,88,2.0,8.0,66,0.00,,,0.00,WeatherCatV1.21B27,2013-09-18 16:21:00,
2013-09-18 12:26:00,88.3,75.5,29.99,ESE,116,2.0,8.0,66,0.00,,,0.00,WeatherCatV1.21B27,2013-09-18 16:26:00,
2013-09-18 12:31:00,87.9,75.5,29.99,SE,125,6.0,7.0,67,0.00,,,0.00,WeatherCatV1.21B27,2013-09-18 16:31:00,
2013-09-18 12:36:00,87.8,76.3,29.99,ESE,118,1.0,5.0,69,0.00,,,0.00,WeatherCatV1.21B27,2013-09-18 16:36:00,
2013-09-18 12:41:00,88.2,75.8,29.99,East,101,6.0,7.0,67,0.00,,,0.00,WeatherCatV1.21B27,2013-09-18 16:41:00,
2013-09-18 12:46:00,88.5,76.1,29.99,NNE,15,4.0,7.0,67,0.00,,,0.00,WeatherCatV1.21B27,2013-09-18 16:46:00,
2013-09-18 12:51:00,88.6,75.8,29.99,NE,40,2.0,9.0,66,0.00,,,0.00,WeatherCatV1.21B27,2013-09-18 16:51:00,
2013-09-18 12:56:00,88.7,75.8,29.99,NNW,333,5.0,7.0,66,0.00,,,0.00,WeatherCatV1.21B27,2013-09-18 16:56:00,
2013-09-18 13:01:00,88.6,76.2,29.99,ENE,59,0.0,4.0,67,0.00,,,0.00,WeatherCatV1.21B27,2013-09-18 17:01:00,
2013-09-18 13:07:00,88.9,75.6,29.98,SE,142,5.0,6.0,65,0.00,,,0.00,WeatherCatV1.21B27,2013-09-18 17:07:00,
2013-09-18 13:12:00,89.1,75.3,29.98,NNE,22,4.0,6.0,64,0.00,,,0.00,WeatherCatV1.21B27,2013-09-18 17:12:00,
2013-09-18 13:17:00,89.3,75.9,29.98,ENE,57,3.0,7.0,65,0.00,,,0.00,WeatherCatV1.21B27,2013-09-18 17:17:00,
2013-09-18 13:22:00,89.7,75.9,29.98,SE,130,0.0,3.0,64,0.00,,,0.00,WeatherCatV1.21B27,2013-09-18 17:22:00,
2013-09-18 13:27:00,90.0,75.2,29.98,ENE,58,5.0,8.0,62,0.00,,,0.00,WeatherCatV1.21B27,2013-09-18 17:27:00,
2013-09-18 13:32:00,90.1,76.2,29.98,ESE,108,4.0,8.0,64,0.00,,,0.00,WeatherCatV1.21B27,2013-09-18 17:32:00,
2013-09-18 13:37:00,90.4,75.1,29.98,East,91,4.0,7.0,61,0.00,,,0.00,WeatherCatV1.21B27,2013-09-18 17:37:00,
2013-09-18 13:42:00,90.5,75.7,29.98,NE,36,1.0,4.0,62,0.00,,,0.00,WeatherCatV1.21B27,2013-09-18 17:42:00,
2013-09-18 13:47:00,90.6,75.3,29.98,North,5,2.0,8.0,61,0.00,,,0.00,WeatherCatV1.21B27,2013-09-18 17:47:00,
2013-09-18 13:52:00,90.0,75.7,29.98,NNE,22,2.0,6.0,63,0.00,,,0.00,WeatherCatV1.21B27,2013-09-18 17:52:00,
2013-09-18 13:57:00,89.8,75.0,29.97,NW,321,1.0,8.0,62,0.00,,,0.00,WeatherCatV1.21B27,2013-09-18 17:57:00,
2013-09-18 14:02:00,89.9,75.1,29.97,NW,323,4.0,5.0,62,0.00,,,0.00,WeatherCatV1.21B27,2013-09-18 18:02:00,
2013-09-18 14:07:00,90.3,76.4,29.97,North,355,2.0,4.0,64,0.00,,,0.00,WeatherCatV1.21B27,2013-09-18 18:07:00,
2013-09-18 14:12:00,90.8,75.9,29.96,East,100,0.0,7.0,62,0.00,,,0.00,WeatherCatV1.21B27,2013-09-18 18:12:00,
2013-09-18 14:17:00,91.1,73.7,29.96,ENE,63,6.0,9.0,57,0.00,,,0.00,WeatherCatV1.21B27,2013-09-18 18:17:00,
2013-09-18 14:22:00,90.9,74.0,29.96,ENE,70,2.0,9.0,58,0.00,,,0.00,WeatherCatV1.21B27,2013-09-18 18:22:00,
2013-09-18 14:27:00,91.0,74.1,29.95,ESE,111,3.0,6.0,58,0.00,,,0.00,WeatherCatV1.21B27,2013-09-18 18:27:00,
2013-09-18 14:32:00,91.2,75.3,29.95,East,99,5.0,5.0,60,0.00,,,0.00,WeatherCatV1.21B27,2013-09-18 18:32:00,
2013-09-18 14:37:00,91.5,74.6,29.95,ESE,111,2.0,4.0,58,0.00,,,0.00,WeatherCatV1.21B27,2013-09-18 18:37:00,
2013-09-18 14:42:00,91.8,74.9,29.95,ESE,106,0.0,7.0,58,0.00,,,0.00,WeatherCatV1.21B27,2013-09-18 18:42:00,
2013-09-18 14:47:00,91.9,74.4,29.95,NE,44,1.0,3.0,57,0.00,,,0.00,WeatherCatV1.21B27,2013-09-18 18:47:00,
2013-09-18 14:52:00,92.2,74.7,29.95,SSE,148,1.0,6.0,57,0.00,,,0.00,WeatherCatV1.21B27,2013-09-18 18:52:00,
2013-09-18 14:57:00,92.4,75.9,29.94,SSE,153,0.0,5.0,59,0.00,,,0.00,WeatherCatV1.21B27,2013-09-18 18:57:00,
2013-09-18 15:02:00,92.4,75.4,29.94,East,84,0.0,4.0,58,0.00,,,0.00,WeatherCatV1.21B27,2013-09-18 19:02:00,
2013-09-18 15:07:00,92.3,74.8,29.94,East,94,0.0,6.0,57,0.00,,,0.00,WeatherCatV1.21B27,2013-09-18 19:07:00,
2013-09-18 15:12:00,92.1,73.6,29.94,ESE,112,6.0,7.0,55,0.00,,,0.00,WeatherCatV1.21B27,2013-09-18 19:12:00,
2013-09-18 15:18:00,91.7,75.3,29.94,NNW,348,0.0,3.0,59,0.00,,,0.00,WeatherCatV1.21B27,2013-09-18 19:18:00,
2013-09-18 15:23:00,92.2,74.7,29.94,NW,311,8.0,9.0,57,0.00,,,0.00,WeatherCatV1.21B27,2013-09-18 19:23:00,
2013-09-18 15:28:00,92.1,75.2,29.94,ENE,59,1.0,5.0,58,0.00,,,0.00,WeatherCatV1.21B27,2013-09-18 19:28:00,
2013-09-18 15:33:00,90.3,77.4,29.94,East,87,4.0,10.0,66,0.33,,,0.02,WeatherCatV1.21B27,2013-09-18 19:33:00,
2013-09-18 15:38:00,87.2,76.2,29.94,East,98,2.0,6.0,70,0.11,,,0.02,WeatherCatV1.21B27,2013-09-18 19:38:00,
2013-09-18 15:43:00,85.5,75.8,29.93,East,84,2.0,7.0,73,0.08,,,0.03,WeatherCatV1.21B27,2013-09-18 19:43:00,
2013-09-18 15:48:00,84.6,75.8,29.93,NE,54,3.0,4.0,75,0.08,,,0.03,WeatherCatV1.21B27,2013-09-18 19:48:00,
2013-09-18 15:53:00,84.1,76.1,29.93,East,92,1.0,5.0,77,0.05,,,0.03,WeatherCatV1.21B27,2013-09-18 19:53:00,
2013-09-18 15:59:00,84.0,75.6,29.93,NE,34,0.0,6.0,76,0.00,,,0.03,WeatherCatV1.21B27,2013-09-18 19:59:00,
2013-09-18 16:04:00,83.9,74.7,29.93,ENE,71,5.0,9.0,74,0.00,,,0.03,WeatherCatV1.21B27,2013-09-18 20:04:00,
2013-09-18 16:09:00,82.6,73.4,29.94,East,81,9.0,13.0,74,0.00,,,0.03,WeatherCatV1.21B27,2013-09-18 20:09:00,
2013-09-18 16:14:00,80.9,73.0,29.94,North,5,1.0,13.0,77,0.00,,,0.03,WeatherCatV1.21B27,2013-09-18 20:14:00,
2013-09-18 16:19:00,79.9,72.8,29.94,East,83,5.0,11.0,79,0.00,,,0.03,WeatherCatV1.21B27,2013-09-18 20:19:00,
2013-09-18 16:24:00,79.4,73.4,29.95,East,84,4.0,9.0,82,0.00,,,0.03,WeatherCatV1.21B27,2013-09-18 20:24:00,
2013-09-18 16:29:00,79.2,73.6,29.94,ESE,103,4.0,4.0,83,0.00,,,0.03,WeatherCatV1.21B27,2013-09-18 20:29:00,
2013-09-18 16:34:00,79.2,73.6,29.95,East,80,3.0,5.0,83,0.00,,,0.03,WeatherCatV1.21B27,2013-09-18 20:34:00,
2013-09-18 16:39:00,79.2,73.9,29.95,ENE,73,1.0,7.0,84,0.00,,,0.03,WeatherCatV1.21B27,2013-09-18 20:39:00,
2013-09-18 16:44:00,79.3,74.0,29.96,East,79,0.0,1.0,84,0.00,,,0.03,WeatherCatV1.21B27,2013-09-18 20:44:00,
2013-09-18 16:49:00,79.4,74.1,29.96,East,88,1.0,7.0,84,0.00,,,0.03,WeatherCatV1.21B27,2013-09-18 20:49:00,
2013-09-18 16:54:00,79.4,74.5,29.96,East,92,0.0,1.0,85,0.00,,,0.03,WeatherCatV1.21B27,2013-09-18 20:54:00,
2013-09-18 16:59:00,79.5,74.6,29.95,East,98,0.0,2.0,85,0.00,,,0.03,WeatherCatV1.21B27,2013-09-18 20:59:00,
2013-09-18 17:04:00,79.5,74.6,29.95,SE,130,0.0,1.0,85,0.00,,,0.03,WeatherCatV1.21B27,2013-09-18 21:04:00,
2013-09-18 17:09:00,79.4,73.8,29.95,East,99,0.0,4.0,83,0.00,,,0.03,WeatherCatV1.21B27,2013-09-18 21:09:00,
2013-09-18 17:14:00,79.4,73.8,29.95,ESE,108,1.0,2.0,83,0.00,,,0.03,WeatherCatV1.21B27,2013-09-18 21:14:00,
2013-09-18 17:19:00,79.3,72.9,29.95,South,169,0.0,3.0,81,0.00,,,0.03,WeatherCatV1.21B27,2013-09-18 21:19:00,
2013-09-18 17:24:00,79.3,72.9,29.95,ESE,111,0.0,0.0,81,0.00,,,0.03,WeatherCatV1.21B27,2013-09-18 21:24:00,
2013-09-18 17:29:00,79.3,72.6,29.96,ESE,111,0.0,1.0,80,0.00,,,0.03,WeatherCatV1.21B27,2013-09-18 21:29:00,
2013-09-18 17:34:00,79.2,72.5,29.96,ESE,107,1.0,5.0,80,0.00,,,0.03,WeatherCatV1.21B27,2013-09-18 21:34:00,
2013-09-18 17:39:00,79.2,72.5,29.95,East,96,1.0,4.0,80,0.00,,,0.03,WeatherCatV1.21B27,2013-09-18 21:39:00,
2013-09-18 17:44:00,79.1,72.4,29.95,ESE,103,0.0,6.0,80,0.00,,,0.03,WeatherCatV1.21B27,2013-09-18 21:44:00,
2013-09-18 17:49:00,79.0,72.7,29.95,ENE,76,0.0,8.0,81,0.00,,,0.03,WeatherCatV1.21B27,2013-09-18 21:49:00,
2013-09-18 17:54:00,79.1,72.8,29.96,ENE,71,1.0,3.0,81,0.00,,,0.03,WeatherCatV1.21B27,2013-09-18 21:54:00,
2013-09-18 17:59:00,79.1,72.8,29.97,ENE,67,1.0,3.0,81,0.00,,,0.03,WeatherCatV1.21B27,2013-09-18 21:59:00,
2013-09-18 18:04:00,79.1,72.8,29.97,East,100,1.0,6.0,81,0.00,,,0.03,WeatherCatV1.21B27,2013-09-18 22:04:00,
2013-09-18 18:09:00,79.1,72.8,29.97,ESE,108,4.0,6.0,81,0.00,,,0.03,WeatherCatV1.21B27,2013-09-18 22:09:00,
2013-09-18 18:14:00,79.1,72.8,29.97,ESE,109,1.0,4.0,81,0.00,,,0.03,WeatherCatV1.21B27,2013-09-18 22:14:00,
2013-09-18 18:19:00,79.1,72.8,29.97,East,96,0.0,3.0,81,0.00,,,0.03,WeatherCatV1.21B27,2013-09-18 22:19:00,
2013-09-18 18:24:00,79.1,73.1,29.97,East,84,0.0,5.0,82,0.00,,,0.03,WeatherCatV1.21B27,2013-09-18 22:24:00,
2013-09-18 18:29:00,79.1,72.8,29.97,East,91,4.0,6.0,81,0.00,,,0.03,WeatherCatV1.21B27,2013-09-18 22:29:00,
2013-09-18 18:34:00,79.1,72.8,29.97,SE,128,2.0,4.0,81,0.00,,,0.03,WeatherCatV1.21B27,2013-09-18 22:34:00,
2013-09-18 18:39:00,79.1,73.1,29.97,East,81,0.0,1.0,82,0.00,,,0.03,WeatherCatV1.21B27,2013-09-18 22:39:00,
2013-09-18 18:44:00,79.2,73.2,29.97,ESE,103,0.0,2.0,82,0.00,,,0.03,WeatherCatV1.21B27,2013-09-18 22:44:00,
2013-09-18 18:49:00,79.2,73.2,29.97,ENE,69,2.0,3.0,82,0.00,,,0.03,WeatherCatV1.21B27,2013-09-18 22:49:00,
2013-09-18 18:54:00,79.2,72.8,29.97,East,88,0.0,1.0,81,0.00,,,0.03,WeatherCatV1.21B27,2013-09-18 22:54:00,
2013-09-18 18:59:00,79.2,73.2,29.97,East,87,4.0,4.0,82,0.00,,,0.03,WeatherCatV1.21B27,2013-09-18 22:59:00,
2013-09-18 19:04:00,79.2,73.2,29.97,East,80,0.0,1.0,82,0.00,,,0.03,WeatherCatV1.21B27,2013-09-18 23:04:00,
2013-09-18 19:09:00,79.2,73.2,29.98,East,84,0.0,1.0,82,0.00,,,0.03,WeatherCatV1.21B27,2013-09-18 23:09:00,
2013-09-18 19:14:00,79.1,73.1,29.98,East,84,0.0,0.0,82,0.00,,,0.03,WeatherCatV1.21B27,2013-09-18 23:14:00,
2013-09-18 19:19:00,79.1,72.8,29.98,East,84,0.0,0.0,81,0.00,,,0.03,WeatherCatV1.21B27,2013-09-18 23:19:00,
2013-09-18 19:24:00,79.0,73.0,29.98,SSE,147,0.0,1.0,82,0.00,,,0.03,WeatherCatV1.21B27,2013-09-18 23:24:00,
2013-09-18 19:29:00,78.9,73.3,29.98,SSE,147,0.0,0.0,83,0.00,,,0.03,WeatherCatV1.21B27,2013-09-18 23:29:00,
2013-09-18 19:34:00,78.8,73.2,29.98,East,93,0.0,1.0,83,0.00,,,0.03,WeatherCatV1.21B27,2013-09-18 23:34:00,
2013-09-18 19:40:00,78.7,72.7,29.98,ESE,112,0.0,1.0,82,0.00,,,0.03,WeatherCatV1.21B27,2013-09-18 23:40:00,
2013-09-18 19:45:00,78.6,72.6,29.98,ESE,123,0.0,1.0,82,0.00,,,0.03,WeatherCatV1.21B27,2013-09-18 23:45:00,
2013-09-18 19:50:00,78.6,72.6,29.98,ESE,103,1.0,2.0,82,0.00,,,0.03,WeatherCatV1.21B27,2013-09-18 23:50:00,
2013-09-18 19:55:00,78.6,72.6,29.98,ESE,108,0.0,2.0,82,0.00,,,0.03,WeatherCatV1.21B27,2013-09-18 23:55:00,
2013-09-18 20:00:00,78.6,72.6,29.98,East,90,0.0,1.0,82,0.00,,,0.03,WeatherCatV1.21B27,2013-09-19 00:00:00,
2013-09-18 20:05:00,78.6,72.6,29.99,East,80,0.0,0.0,82,0.00,,,0.03,WeatherCatV1.21B27,2013-09-19 00:05:00,
2013-09-18 20:10:00,78.6,72.6,29.98,East,80,0.0,1.0,82,0.00,,,0.03,WeatherCatV1.21B27,2013-09-19 00:10:00,
2013-09-18 20:15:00,78.5,72.9,29.98,East,84,0.0,2.0,83,0.00,,,0.03,WeatherCatV1.21B27,2013-09-19 00:15:00,
2013-09-18 20:20:00,78.5,72.9,29.98,East,84,0.0,1.0,83,0.00,,,0.03,WeatherCatV1.21B27,2013-09-19 00:20:00,
2013-09-18 20:25:00,78.4,72.8,29.99,East,94,0.0,0.0,83,0.00,,,0.03,WeatherCatV1.21B27,2013-09-19 00:25:00,
2013-09-18 20:30:00,78.4,72.8,29.99,East,94,1.0,1.0,83,0.00,,,0.03,WeatherCatV1.21B27,2013-09-19 00:30:00,
2013-09-18 20:35:00,78.3,73.1,29.99,East,89,1.0,2.0,84,0.00,,,0.03,WeatherCatV1.21B27,2013-09-19 00:35:00,
2013-09-18 20:40:00,78.2,72.9,29.99,East,89,0.0,0.0,84,0.00,,,0.03,WeatherCatV1.21B27,2013-09-19 00:40:00,
2013-09-18 20:45:00,78.2,72.9,29.99,East,84,1.0,1.0,84,0.00,,,0.03,WeatherCatV1.21B27,2013-09-19 00:45:00,
2013-09-18 20:50:00,78.2,72.9,29.99,ENE,75,0.0,4.0,84,0.00,,,0.03,WeatherCatV1.21B27,2013-09-19 00:50:00,
2013-09-18 20:55:00,78.2,72.9,29.99,East,79,0.0,1.0,84,0.00,,,0.03,WeatherCatV1.21B27,2013-09-19 00:55:00,
2013-09-18 21:00:00,78.1,73.2,29.99,East,96,0.0,2.0,85,0.00,,,0.03,WeatherCatV1.21B27,2013-09-19 01:00:00,
2013-09-18 21:05:00,78.0,73.5,29.99,ESE,121,0.0,0.0,86,0.00,,,0.03,WeatherCatV1.21B27,2013-09-19 01:05:00,
2013-09-18 21:10:00,78.0,73.8,29.99,East,79,0.0,2.0,87,0.00,,,0.04,WeatherCatV1.21B27,2013-09-19 01:10:00,
2013-09-18 21:16:00,77.9,73.7,29.99,ENE,65,0.0,1.0,87,0.00,,,0.04,WeatherCatV1.21B27,2013-09-19 01:16:00,
2013-09-18 21:21:00,77.7,73.5,29.99,ENE,58,0.0,0.0,87,0.00,,,0.04,WeatherCatV1.21B27,2013-09-19 01:21:00,
2013-09-18 21:26:00,77.6,73.8,30.00,ENE,59,0.0,2.0,88,0.00,,,0.04,WeatherCatV1.21B27,2013-09-19 01:26:00,
2013-09-18 21:31:00,77.5,73.7,30.00,ENE,63,0.0,0.0,88,0.00,,,0.04,WeatherCatV1.21B27,2013-09-19 01:31:00,
2013-09-18 21:36:00,77.4,73.9,30.00,ENE,70,0.0,1.0,89,0.00,,,0.04,WeatherCatV1.21B27,2013-09-19 01:36:00,
2013-09-18 21:41:00,77.3,73.8,30.01,East,92,0.0,2.0,89,0.00,,,0.04,WeatherCatV1.21B27,2013-09-19 01:41:00,
2013-09-18 21:46:00,77.4,73.9,30.01,ENE,57,5.0,6.0,89,0.52,,,0.06,WeatherCatV1.21B27,2013-09-19 01:46:00,
2013-09-18 21:51:00,77.2,74.0,30.02,East,89,6.0,11.0,90,0.77,,,0.10,WeatherCatV1.21B27,2013-09-19 01:51:00,
2013-09-18 21:56:00,76.7,73.2,30.01,NE,49,5.0,6.0,89,0.16,,,0.12,WeatherCatV1.21B27,2013-09-19 01:56:00,
2013-09-18 22:01:00,76.1,72.3,30.00,East,90,4.0,7.0,88,0.07,,,0.12,WeatherCatV1.21B27,2013-09-19 02:01:00,
2013-09-18 22:06:00,75.6,72.1,30.01,East,88,1.0,4.0,89,0.06,,,0.13,WeatherCatV1.21B27,2013-09-19 02:06:00,
2013-09-18 22:11:00,75.3,72.2,30.01,ENE,76,2.0,4.0,90,0.06,,,0.13,WeatherCatV1.21B27,2013-09-19 02:11:00,
2013-09-18 22:16:00,75.2,72.1,30.01,East,81,1.0,6.0,90,0.05,,,0.13,WeatherCatV1.21B27,2013-09-19 02:16:00,
2013-09-18 22:21:00,75.1,72.3,30.02,East,86,0.0,5.0,91,0.00,,,0.13,WeatherCatV1.21B27,2013-09-19 02:21:00,
2013-09-18 22:26:00,75.0,72.2,30.02,ENE,59,0.0,5.0,91,0.00,,,0.13,WeatherCatV1.21B27,2013-09-19 02:26:00,
2013-09-18 22:31:00,75.0,72.5,30.02,East,81,0.0,1.0,92,0.00,,,0.13,WeatherCatV1.21B27,2013-09-19 02:31:00,
2013-09-18 22:36:00,75.0,72.5,30.01,ENE,65,0.0,1.0,92,0.00,,,0.13,WeatherCatV1.21B27,2013-09-19 02:36:00,
2013-09-18 22:41:00,75.0,72.5,30.01,ESE,112,0.0,2.0,92,0.00,,,0.13,WeatherCatV1.21B27,2013-09-19 02:41:00,
2013-09-18 22:46:00,74.9,72.4,30.01,ESE,111,0.0,1.0,92,0.00,,,0.13,WeatherCatV1.21B27,2013-09-19 02:46:00,
2013-09-18 22:51:00,75.0,72.5,30.01,ENE,63,1.0,2.0,92,0.00,,,0.13,WeatherCatV1.21B27,2013-09-19 02:51:00,
2013-09-18 22:56:00,75.0,72.5,30.01,ENE,68,1.0,2.0,92,0.00,,,0.13,WeatherCatV1.21B27,2013-09-19 02:56:00,
2013-09-18 23:01:00,74.9,72.4,30.01,East,80,0.0,2.0,92,0.00,,,0.13,WeatherCatV1.21B27,2013-09-19 03:01:00,
2013-09-18 23:07:00,74.9,72.7,30.01,East,98,0.0,5.0,93,0.00,,,0.13,WeatherCatV1.21B27,2013-09-19 03:07:00,
2013-09-18 23:12:00,74.9,72.7,30.01,ENE,59,2.0,3.0,93,0.00,,,0.13,WeatherCatV1.21B27,2013-09-19 03:12:00,
2013-09-18 23:17:00,74.9,72.7,30.01,East,90,2.0,4.0,93,0.00,,,0.13,WeatherCatV1.21B27,2013-09-19 03:17:00,
2013-09-18 23:22:00,74.9,72.7,30.01,East,90,1.0,2.0,93,0.00,,,0.13,WeatherCatV1.21B27,2013-09-19 03:22:00,
2013-09-18 23:27:00,74.9,72.7,30.01,East,94,1.0,2.0,93,0.00,,,0.13,WeatherCatV1.21B27,2013-09-19 03:27:00,
2013-09-18 23:32:00,74.9,72.7,30.01,East,98,0.0,2.0,93,0.00,,,0.13,WeatherCatV1.21B27,2013-09-19 03:32:00,
2013-09-18 23:37:00,74.9,72.7,30.01,East,90,0.0,1.0,93,0.00,,,0.13,WeatherCatV1.21B27,2013-09-19 03:37:00,
2013-09-18 23:42:00,74.9,72.7,30.01,East,85,1.0,2.0,93,0.00,,,0.13,WeatherCatV1.21B27,2013-09-19 03:42:00,
2013-09-18 23:47:00,74.9,72.7,30.01,East,83,1.0,2.0,93,0.00,,,0.13,WeatherCatV1.21B27,2013-09-19 03:47:00,
2013-09-18 23:52:00,75.0,72.8,30.01,East,79,0.0,2.0,93,0.00,,,0.13,WeatherCatV1.21B27,2013-09-19 03:52:00,
2013-09-18 23:57:00,75.0,72.8,30.01,East,79,0.0,0.0,93,0.00,,,0.13,WeatherCatV1.21B27,2013-09-19 03:57:00,